Location: Ocean City
(38.3360°N, 75.0850°W)
Time: 16:54:36
(UTC-05:00)

Explorer 11/Cluster Stage 4 - Pass Details

Date: 18 November 2019
Orbit: 467 x 1259 km, 28.8° (Epoch: 11 December)

Event Time Altitude Azimuth Distance (km) Brightness Sun altitude
Rises 01:40:57 0° 263° (W) 4,059 - -58.5°
Reaches altitude 10° 01:44:43 10° 246° (WSW) 3,172 - -57.8°
Maximum altitude 01:49:56 19° 206° (SSW) 2,611 - -56.9°
Drops below altitude 10° 01:55:14 10° 165° (SSE) 3,212 - -56.0°
Sets 01:59:06 0° 149° (SSE) 4,127 - -55.3°
